Regional Weather Roundup
Issued by NWS

Home | Current Version | Previous Version | Graphics & Text | Print | Product List | Glossary On
Versions: 1 2 3 4 5 6 7 8 9 10 11 12 13 14 15 16 17 18 19 20 21 22 23 24 25 26 27 28 29 30 31 32 33 34 35 36 37 38 39 40 41 42 43 44 45 46 47 48 49 50
000
ASUS45 KBOU 171707
RWRCO

WEATHER ROUNDUP FOR COLORADO
NATIONAL WEATHER SERVICE DENVER/BOULDER CO
1100 AM MDT TUE OCT 17 2017

NOTE: "FAIR" INDICATES FEW OR NO CLOUDS BELOW 12000 FEET WITH NO
SIGNIFICANT WEATHER AND/OR OBSTRUCTIONS TO VISIBILITY.

COZ001>005-013-030-031-171800-
...NORTHWEST COLORADO...

CITY           SKY/WX    TMP DP  RH WIND       PRES   REMARKS
CRAIG          FAIR      51  21  30 CALM      30.39F
HAYDEN         FAIR      52  12  20 SE9       30.41F
MEEKER         FAIR      52  12  20 SE3       30.39F
RABBIT EARS PA FAIR      43   3  19 SW7       30.53F
STEAMBOAT SPGS FAIR      46  14  27 CALM      30.41F
WALDEN         FAIR      52  10  19 SW8       30.43F
$$

COZ006>008-011-171800-
...WEST CENTRAL VALLEYS...

CITY           SKY/WX    TMP DP  RH WIND       PRES   REMARKS
GRAND JUNCTION FAIR      54  15  21 S6        30.37F
MONTROSE       FAIR      53  16  23 NW5       30.41F
EAGLE          FAIR      42  10  27 CALM      30.47F
RIFLE          FAIR      47  18  31 CALM      30.41F
DELTA          FAIR      52  12  20 CALM      30.40F
NUCLA          NOT AVBL
$$

COZ017>023-064>068-171800-
...SOUTHWEST COLORADO...

CITY           SKY/WX    TMP DP  RH WIND       PRES   REMARKS
DURANGO        FAIR      56  17  21 CALM      30.40F
CORTEZ         FAIR      58  16  19 S5        30.38F
PAGOSA SPRINGS FAIR      56  13  18 S3        30.45F
TELLURIDE      FAIR      55  -1  10 CALM      30.53
WOLF CREEK PAS FAIR      45  -8  11 CALM      30.69R
$$

COZ009-010-012-014-032>034-037-058>063-171800-
...CENTRAL COLORADO...

CITY           SKY/WX    TMP DP  RH WIND       PRES   REMARKS
ASPEN          FAIR      52   7  16 N8        30.43F
BUENA VISTA    FAIR      55   3  12 E5        30.42F
COPPER MTN     FAIR      45 -22   5 W7        30.62S
BERTHOUD PASS  FAIR      36  27  69 W20G30    30.62S
COTTONWOOD PAS FAIR      57  -6   7 CALM      30.51F
GUNNISON       FAIR      41   5  22 CALM      30.51F
KREMMLING      FAIR      45  14  29 CALM      30.47F
LEADVILLE      FAIR      51 -11   7 N12       30.50F
MONARCH PASS   FAIR      37  -4  17 W9        30.73R
SALIDA         NOT AVBL
SUNLIGHT       NOT AVBL
WILKERSON PASS FAIR      45  -9  10 NW7       30.58F
$$

COZ069>075-171800-
...SAN LUIS VALLEY/SANGRE DE CRISTO MOUNTAINS...

CITY           SKY/WX    TMP DP  RH WIND       PRES   REMARKS
ALAMOSA        FAIR      52  16  24 VRB5      30.45F
DEL NORTE      FAIR      55  12  18 W3        30.46F
LA VETA PASS   FAIR      50  14  23 SW20G29   30.62F
SAGUACHE       FAIR      57   9  14 NW12      30.45F
$$

COZ035-036-038>040-171800-
...NORTHERN COLORADO FRONT RANGE...

CITY           SKY/WX    TMP DP  RH WIND       PRES   REMARKS
DENVER INTL AP FAIR      68  14  12 SW7       30.24F
DMNS CITY PARK   N/A     65  13  13 SW5G10    30.24F
AURORA         MOSUNNY   66  15  14 SW8       30.26F
FRONT RANGE AP MOSUNNY   72  14  11 S5        30.26F
ERIE MUNI ARPT FAIR      66  19  16 E3        30.27F
BOULDER MUN AP FAIR      63  25  23 NE6       30.22S
CENTENNIAL     FAIR      66   3   8 S5        30.26F
BROOMFIELD     MOSUNNY   66  19  16 E6        30.26F
FORT COLLINS   FAIR      62  25  24 S3        30.23F
LONGMONT       FAIR      65  23  20 CALM      30.24S
$$

COZ041-046-047-076>085-087-088-171800-
...PIKES PEAK/PALMER DIVIDE AND SOUTHERN FOOTHILLS...

CITY           SKY/WX    TMP DP  RH WIND       PRES   REMARKS
COLO. SPRINGS  FAIR      66  17  15 VRB5      30.31F
A. F. ACADEMY  FAIR      66   6   9 S8        30.31F
SCHRIEVER AFB  FAIR      65  15  14 SE7       30.31F
CHEYENNE MTN   FAIR      62  11  13 SE5       30.29F
ELLICOTT       FAIR     N/A N/A N/A S7        30.29F
FALCON         FAIR      65  11  12 CALM      30.35F
FORT CARSON    FAIR      67  11  11 CALM      30.28F
LIMON          FAIR      70  13  11 S10       30.26F
MONUMENT HILL  FAIR      63  14  15 S8        30.34F
CANON CITY     SUNNY     70  12  11 W13       30.26F
WALSENBURG     FAIR      72  21  15 NE7       30.29F
TRINIDAD       FAIR      66  18  15 CALM      30.29F
$$

COZ042>045-048>051-090-091-171800-
...NORTHEAST COLORADO...

CITY           SKY/WX    TMP DP  RH WIND       PRES   REMARKS
GREELEY ARPT   FAIR      55  30  38 CALM      30.23F
AKRON          FAIR      65  20  17 W13       30.21
BURLINGTON     FAIR      73  24  16 E7        30.20F
WRAY           FAIR      68  25  19 CALM      30.18F
YUMA           NOT AVBL
STERLING       FAIR      57  34  41 S7        30.18F
HOLYOKE        FAIR      73  27  17 SW5       30.17F
FORT MORGAN    FAIR      61  25  25 W9        30.22F
$$

COZ086-089-092>099-171800-
...SOUTHEAST COLORADO...

CITY           SKY/WX    TMP DP  RH WIND       PRES   REMARKS
PUEBLO         FAIR      67  19  16 CALM      30.23F
LA JUNTA       FAIR      68  27  21 W6        30.22F
LAMAR          FAIR      66  27  23 W5        30.18F
SPRINGFIELD      N/A     70  31  23 NE13      30.19F
$$



USA.gov is the U.S. government's official web portal to all federal, state and local government web resources and services.